Weather History for Kalispell, MT

Change the Weather History Date:

Wednesday, March 6, 2013

  Actual Average Record
Temperature  
Mean Temperature 33 °F 32 °F  
Max Temperature 38 °F 42 °F 57 °F (2005)
Min Temperature 27 °F 22 °F -10 °F (1943)
Degree Days  
Heating Degree Days 32 33  
Month to date heating degree days 189 205  
Since 1 July heating degree days 5476 6057  
Cooling Degree Days 0 0  
Month to date cooling degree days 0 0  
Year to date cooling degree days 0 0  
Moisture  
Dew Point 28 °F    
Average Humidity 86    
Maximum Humidity 100    
Minimum Humidity 72    
Precipitation  
Precipitation 0.08 in 0.04 in 0.33 in (1950)
Month to date precipitation 0.22 0.22  
Year to date precipitation 1.27 2.52  
Snow  
Snow 0.30 in - - ()
Month to date snowfall 0.8  
Year to date snowfall 8.3  
Since 1 July snowfall 17.1  
Snow Depth 0.00 in    
Sea Level Pressure  
Sea Level Pressure 29.77 in    
Wind  
Wind Speed 3 mph (NNE)    
Max Wind Speed 12 mph    
Max Gust Speed 44 mph    
Visibility 6 miles    
Events Fog , Snow    
T = Trace of Precipitation, MM = Missing Value Source: NWS Daily Summary

Daily Weather History Graph

Daily Weather History Graph

Search for Another Location

Airport:

Trip Planner

Search our weather history database for the weather conditions in past years. The results will help you decide how hot, cold, wet, or windy it might be!

Date:

Astronomy

Mar. 06, 2013 Rise Set
Actual Time 7:07 AM MST 6:29 PM MST
Civil Twilight 6:36 AM MST 7:00 PM MST
Nautical Twilight 6:00 AM MST 7:36 PM MST
Astronomical Twilight 5:24 AM MST 8:13 PM MST
Moon 3:40 AM MST (3/6) 12:56 PM MST (3/6)
Length of Visible Light 12h 23m
Length of Day
11h 21m
Waning Crescent, 29% of the Moon is Illuminated
Mar 6
Waning Crescent
Mar 11
New
Mar 19
First Quarter
Mar 27
Full
Apr 2
Last Quarter

Hourly Weather History & Observations

Time (MST) Temp. Windchill Dew Point Humidity Pressure Visibility Wind Dir Wind Speed Gust Speed Precip Events Conditions
12:55 AM 30.0 °F - 24.1 °F 79% 29.96 in 10.0 mi North - - N/A   Scattered Clouds
1:55 AM 28.0 °F 24.2 °F 23.0 °F 81% 29.96 in 10.0 mi NW 3.5 mph - N/A   Partly Cloudy
2:55 AM 28.0 °F - 24.1 °F 85% 29.94 in 10.0 mi Calm Calm - N/A   Clear
3:55 AM 28.9 °F 23.9 °F 24.1 °F 82% 29.90 in 10.0 mi Variable 4.6 mph - N/A   Overcast
4:55 AM 28.9 °F 20.4 °F 24.1 °F 82% 29.86 in 10.0 mi North 9.2 mph - N/A   Clear
5:55 AM 28.9 °F 25.2 °F 24.1 °F 82% 29.85 in 10.0 mi NNW 3.5 mph - N/A   Clear
6:55 AM 28.9 °F 19.8 °F 23.0 °F 78% 29.83 in 10.0 mi NNW 10.4 mph - N/A   Clear
7:55 AM 28.0 °F 20.8 °F 23.0 °F 81% 29.82 in 10.0 mi NNW 6.9 mph - N/A   Clear
8:55 AM 30.9 °F 24.3 °F 24.1 °F 76% 29.79 in 10.0 mi NNW 6.9 mph - N/A   Clear
9:55 AM 30.0 °F - 24.1 °F 79% 29.83 in 10.0 mi Calm Calm - N/A   Overcast
10:55 AM 32.0 °F 28.7 °F 24.1 °F 73% 29.81 in 10.0 mi SSE 3.5 mph - N/A   Overcast
11:22 AM 32.0 °F 28.7 °F 24.8 °F 75% 29.73 in 1.0 mi ESE 3.5 mph - 0.00 in Snow Light Snow
11:29 AM 30.2 °F - 26.6 °F 86% 29.73 in 1.0 mi Calm Calm - 0.00 in Snow Light Snow
11:50 AM 30.2 °F - 28.4 °F 93% 29.72 in 0.5 mi Calm Calm - 0.03 in Fog , Snow Snow
11:55 AM 30.0 °F - 28.0 °F 92% 29.80 in 0.8 mi Calm Calm - 0.04 in Snow Light Snow
12:03 PM 30.2 °F - 28.4 °F 93% 29.72 in 0.8 mi Calm Calm - 0.00 in Snow Light Snow
12:12 PM 30.2 °F - 28.4 °F 93% 29.72 in 1.0 mi Calm Calm - 0.01 in Snow Light Snow
12:17 PM 30.2 °F - 28.4 °F 93% 29.72 in 2.0 mi Calm Calm - 0.01 in Snow Light Snow
12:28 PM 30.2 °F - 28.4 °F 93% 29.71 in 3.0 mi Calm Calm - 0.01 in Snow Light Snow
12:35 PM 32.0 °F - 28.4 °F 87% 29.71 in 3.0 mi Calm Calm - 0.01 in Snow Light Snow
12:52 PM 32.0 °F - 28.4 °F 87% 29.71 in 3.0 mi Calm Calm - 0.01 in Snow Light Snow
12:55 PM 32.0 °F - 28.0 °F 85% 29.78 in 2.5 mi Calm Calm - 0.01 in Snow Light Snow
1:12 PM 33.8 °F - 28.4 °F 81% 29.70 in 3.0 mi Calm Calm - 0.00 in Snow Light Snow
1:21 PM 33.8 °F - 30.2 °F 87% 29.70 in 2.5 mi Calm Calm - 0.00 in Snow Light Snow
1:24 PM 33.8 °F - 30.2 °F 87% 29.70 in 4.0 mi Calm Calm - 0.00 in Snow Light Snow
1:38 PM 33.8 °F - 28.4 °F 81% 29.69 in 4.0 mi Calm Calm - 0.00 in Snow Light Snow
1:55 PM 33.1 °F - 28.9 °F 85% 29.76 in 8.0 mi Calm Calm - 0.00 in   Overcast
2:55 PM 36.0 °F - 30.0 °F 79% 29.76 in 9.0 mi Calm Calm - 0.00 in Snow Light Snow
3:05 PM 35.6 °F - 30.2 °F 81% 29.69 in 9.0 mi Calm Calm - 0.00 in   Overcast
3:15 PM 35.6 °F - 30.2 °F 81% 29.69 in 10.0 mi Calm Calm - 0.00 in   Overcast
3:42 PM 35.6 °F 32.8 °F 30.2 °F 81% 29.69 in 10.0 mi ENE 3.5 mph - 0.00 in   Overcast
3:55 PM 36.0 °F - 30.9 °F 82% 29.76 in 10.0 mi Calm Calm - 0.00 in   Overcast
4:12 PM 35.6 °F 32.8 °F 30.2 °F 81% 29.68 in 10.0 mi ENE 3.5 mph - N/A   Overcast
4:55 PM 37.0 °F 34.5 °F 30.9 °F 79% 29.74 in 10.0 mi North 3.5 mph - N/A   Overcast
5:55 PM 35.1 °F - 30.9 °F 85% 29.74 in 10.0 mi Calm Calm - N/A   Overcast
6:55 PM 34.0 °F - 30.0 °F 85% 29.74 in 9.0 mi Calm Calm - N/A   Overcast
7:55 PM 33.1 °F 27.7 °F 30.9 °F 92% 29.77 in 3.0 mi SE 5.8 mph - 0.00 in Snow Light Snow
8:55 PM 33.1 °F - 30.9 °F 92% 29.78 in 8.0 mi Calm Calm - 0.00 in   Overcast
9:46 PM 33.8 °F 30.8 °F 30.2 °F 87% 29.71 in 1.8 mi NE 3.5 mph - 0.01 in Snow Light Snow
9:55 PM 32.0 °F - 30.9 °F 96% 29.79 in 1.8 mi Calm Calm - 0.03 in Snow Light Snow
10:03 PM 32.0 °F - 30.2 °F 93% 29.71 in 2.5 mi Calm Calm - 0.00 in Snow Light Snow
10:37 PM 32.0 °F - 32.0 °F 100% 29.72 in 3.0 mi Calm Calm - 0.00 in   Overcast
10:42 PM 32.0 °F - 30.2 °F 93% 29.72 in 2.5 mi Calm Calm - 0.00 in Snow Light Snow
10:55 PM 32.0 °F - 32.0 °F 100% 29.80 in 2.5 mi Calm Calm - 0.00 in Snow Light Snow
11:17 PM 32.0 °F - 32.0 °F 100% 29.74 in 2.0 mi Calm Calm - 0.00 in Snow Light Snow
11:55 PM 33.1 °F - 30.9 °F 92% 29.83 in 2.0 mi Calm Calm - 0.00 in   Overcast